Vertical_Velocity
-0 -0 -3 2 5 -1 -0 -0 0 -1 1 0 1 -1 -7 -0 -4 1 -0 2 2 3 1 -1 1 -2 -1 1 4 1 2 2 3 -0 1 0 -2 2 1 -0 1 -1 0 0 2 2 0 -2 -1
-1 -0 0 -2 -1 1 -1 -1 0 -1 -1 0 1 1 1 2 -1 -1 -0 0 0 2 -1 -0 -1 -1 -1 0 -0 0 3 2 2 1 -1 -0 -1 0 1 2 -0 1 -1 -1 -1 -0 -0 -1 -1
1 0 1 -2 -0 -1 -1 -1 -1 -1 0 1 0 -2 1 2 -2 -2 -1 -1 -0 -1 -1 -2 0 -2 -2 -0 0 1 1 2 3 1 1 0 1 0 -1 2 -1 1 3 -1 1 2 2 2 -1
-1 0 -4 0 -1 -3 -1 -1 -1 0 -1 -0 -0 1 -0 -3 -1 -1 1 1 -1 -2 -1 2 3 2 2 2 2 1 -0 1 1 1 3 3 -2 0 2 1 1 0 2 2 1 -1 -1 -2 -2
2 -2 -0 -0 -1 -1 -1 -1 0 -0 -0 1 -1 -0 0 0 1 1 1 -1 -1 -1 -2 -2 -3 -3 -1 -1 -1 -1 -0 -1 -0 2 2 1 -2 2 2 -1 1 -1 -0 1 3 -1 2 3 2
-0 -2 1 -0 -1 -1 -1 -0 0 0 -1 1 1 -0 0 -0 0 -2 1 0 0 2 2 1 1 1 2 2 0 0 -0 1 -2 1 1 1 3 3 1 -0 -2 1 -1 -1 3 3 -2 -0 2
-2 -1 -1 -0 -1 -1 -1 1 0 -0 0 -1 1 0 1 1 -0 2 1 1 1 1 -1 -1 -0 -1 -1 0 0 -2 -2 0 -1 -1 -2 -1 2 -0 1 2 0 1 -1 -2 0 0 1 -0 -1
-0 -0 1 -1 -1 -4 -1 -2 1 -1 -2 0 -4 -1 -0 -5 -1 2 2 0 1 2 2 2 1 -2 -1 1 3 3 1 1 2 1 -3 -1 1 -1 0 2 1 -0 -0 -1 -0 0 2 -0 1
-1 2 0 -2 0 -4 -1 -1 0 1 -2 0 -0 -1 -1 1 -1 1 1 1 1 -0 1 -0 2 1 3 2 1 2 2 -1 -3 -1 0 -1 -1 2 -1 -3 -0 -1 -1 -1 0 0 0 -2 0
2 2 -4 -3 -2 -1 -0 0 0 1 0 -2 -1 -2 0 -1 -3 -2 -0 1 1 0 -0 -1 -2 -2 -2 0 0 1 2 6 5 -9 1 1 1 -0 1 -2 2 -3 -1 3 -1 0 -1 -0 -1
1 -0 -1 -2 -0 2 0 -1 2 1 0 -4 -3 3 3 1 1 1 2 4 2 -2 0 1 1 2 2 -1 1 -0 1 -1 -0 5 -2 -4 -3 -1 -0 -0 -2 0 -2 -3 1 -0 2 1 2
3 -0 -0 -2 1 1 0 -0 -1 1 -11 3 1 3 -2 -2 -6 -2 2 0 1 1 3 -0 -2 1 2 1 3 4 2 -1 1 -5 -1 0 -3 -1 -4 -1 -0 -2 -2 -3 -0 -3 0 2 0
2 -2 1 1 -3 -3 2 -3 -4 -9 -3 -0 -3 1 0 0 2 -0 0 -2 -2 -2 1 2 0 -0 -0 0 -2 -2 1 -1 -2 -4 5 -0 -1 -2 1 1 -1 -2 -0 -3 -0 -1 -1 -2 -0
0 1 -2 -1 -2 -1 7 -5 5 -10 -1 -1 0 -1 0 -1 1 4 -2 -0 -3 1 1 1 0 2 2 0 -0 0 1 0 -5 -1 -6 -2 0 -1 -1 0 1 -0 1 1 -0 1 -1 -2 -2
-0 -0 -3 -4 -2 -2 -1 1 -2 6 -0 -2 -1 1 5 3 5 -12 15 4 2 4 2 1 0 1 2 0 0 -0 -0 -1 -2 3 1 0 -3 -0 -1 0 0 -1 -1 -0 -1 -0 -3 -0 -4
2 3 2 1 1 -1 4 -12 -6 2 -0 -3 -4 -3 -1 -1 1 16 7 5 1 1 1 2 1 0 0 0 1 1 -0 2 -0 -1 1 -0 0 -0 -0 -1 2 3 -1 -0 4 -1 2 -2 -1
0 -1 1 -5 0 0 3 -3 -6 0 2 -3 -0 -1 -1 -1 -3 -2 0 4 6 4 0 0 1 1 2 1 0 1 1 2 0 2 1 -0 2 -2 2 2 -1 -3 -2 -0 -2 -1 2 -1 1
-1 1 1 -1 -0 0 -3 -8 -7 -5 3 -2 -3 -3 -2 -0 -14 7 0 0 3 4 4 4 2 1 -2 -1 -0 2 1 -0 -1 -2 -2 2 2 -1 -1 2 1 -0 -1 -2 -3 -1 -2 0 0
2 3 1 -6 -6 13 -1 -1 -5 -5 2 -1 -4 -2 -3 -7 15 -2 -0 2 1 2 1 1 -2 -1 -2 -3 -3 0 -2 0 1 1 -0 -4 -6 -3 -4 -2 1 1 0 -2 -2 -2 -4 -3 -2
2 2 -7 -7 -2 10 -2 -12 -5 -1 -8 0 -1 -1 -4 0 -1 -1 0 2 1 4 3 -0 1 1 -0 2 2 2 -0 -1 -1 3 3 2 2 2 2 0 -3 -1 -2 0 1 -2 -2 -2 -2
-1 1 -2 2 -4 -3 6 -13 -5 -2 1 0 -1 -1 -1 -3 1 1 -2 -1 5 -2 -0 5 2 0 -1 0 3 3 3 4 -0 -1 2 1 0 -3 -0 2 2 2 -1 0 -1 -1 -3 -3 -1
5 -2 1 1 6 -0 3 -17 -6 -4 -3 -0 -3 0 8 6 6 1 1 -1 3 6 5 5 4 4 3 4 1 2 2 -0 2 3 3 1 1 2 0 -2 -3 -4 1 0 -1 -1 -2 -2 -5
-15 1 0 0 1 7 -4 11 -4 2 -7 -3 0 -2 1 2 0 1 3 7 8 3 5 5 0 5 4 1 3 1 3 0 1 0 -1 -1 1 -2 -3 -1 -3 2 -1 -1 -0 -3 -2 -3 -2
-0 0 0 0 1 7 -8 7 -15 1 3 -2 -3 -1 -1 -3 -0 1 2 3 2 5 4 4 6 3 -0 -2 -0 0 -1 -4 -1 -0 -0 -3 -0 0 -1 -3 -4 -2 -1 -1 -2 -1 0 -3 -3
4 4 -1 3 7 -9 -1 10 -17 2 2 4 3 -0 -2 -1 1 3 2 4 5 5 4 3 2 2 2 3 3 5 6 5 3 3 -1 -1 -1 3 -2 -0 -2 -3 -4 -4 -4 -3 -1 1 -2
-2 -2 -4 -3 -0 -5 1 -3 -4 2 2 1 0 1 -1 -4 -2 1 1 1 -0 -0 2 4 5 8 8 3 3 5 4 5 1 1 1 -0 -2 4 -1 2 0 1 1 -2 -4 -1 -1 -0 2
2 1 -9 4 -0 7 -4 1 8 -1 -1 -2 -1 -0 1 -1 -5 -4 1 3 2 4 3 1 -1 4 3 3 5 3 5 3 2 2 2 -1 2 4 -0 -0 2 1 -4 -2 -4 1 1 1 -3
1 -2 2 1 2 1 -2 -1 -1 -1 0 -1 -3 -1 -1 -0 -1 -4 -6 1 5 9 7 6 5 3 3 3 7 5 7 5 6 4 -0 -0 4 3 1 -1 3 1 0 1 1 -4 -5 0 2
-3 -0 -1 1 1 2 -0 4 -1 -0 -0 -0 -1 -2 -1 -1 -0 -1 -1 -3 5 7 8 6 5 6 6 6 4 6 4 -0 -2 -0 -3 1 2 -3 -5 2 1 3 -1 -1 1 -0 -1 0 1
-2 -2 5 4 -1 -1 1 -6 -2 -2 -1 1 -1 2 1 -1 1 6 2 0 -4 0 2 6 4 3 3 4 4 -5 0 3 7 -1 -1 1 -4 -2 -1 1 1 1 2 -1 1 6 7 -2 -3
Height
1504 1504 1504 1504 1508 1508 1509 1504 1502 1499 1496 1495 1495 1495 1494 1497 1496 1503 1501 1501 1503 1508 1512 1515 1518 1521 1524 1526 1527 1528 1528 1528 1529 1529 1530 1530 1531 1531 1531 1532 1532 1533 1533 1534 1534 1534 1534 1534 1535
1504 1503 1503 1504 1507 1508 1502 1502 1500 1497 1496 1495 1496 1496 1496 1496 1498 1498 1500 1501 1504 1508 1511 1514 1517 1520 1523 1525 1527 1528 1528 1528 1528 1528 1529 1530 1531 1531 1532 1532 1532 1533 1533 1533 1534 1533 1533 1533 1534
1503 1502 1503 1505 1514 1504 1501 1498 1496 1496 1495 1495 1495 1496 1496 1497 1497 1498 1498 1500 1503 1507 1511 1514 1517 1519 1522 1524 1526 1527 1528 1529 1528 1528 1529 1530 1530 1531 1532 1532 1532 1533 1533 1533 1533 1533 1533 1533 1533
1501 1502 1505 1505 1509 1503 1499 1493 1495 1495 1495 1493 1493 1494 1496 1495 1496 1496 1498 1500 1504 1507 1511 1514 1516 1519 1521 1523 1525 1526 1527 1528 1529 1528 1528 1528 1529 1530 1530 1530 1531 1532 1533 1532 1532 1532 1532 1532 1532
1501 1500 1504 1508 1506 1500 1497 1493 1493 1492 1490 1490 1491 1492 1494 1494 1495 1496 1497 1501 1504 1506 1510 1513 1515 1517 1519 1522 1524 1525 1526 1527 1528 1528 1528 1528 1527 1529 1528 1528 1529 1530 1531 1531 1530 1530 1531 1530 1531
1500 1502 1504 1506 1505 1496 1493 1492 1491 1490 1489 1489 1491 1492 1493 1492 1494 1495 1498 1501 1503 1506 1508 1511 1513 1516 1518 1520 1522 1523 1524 1525 1526 1527 1527 1527 1527 1528 1527 1527 1528 1528 1529 1530 1529 1528 1528 1528 1529
1498 1500 1502 1505 1503 1496 1490 1490 1489 1488 1488 1489 1488 1489 1491 1491 1493 1495 1498 1501 1503 1504 1507 1509 1511 1514 1517 1519 1520 1521 1522 1524 1524 1524 1525 1526 1526 1526 1526 1527 1527 1527 1527 1528 1528 1527 1526 1526 1526
1498 1498 1503 1502 1499 1494 1489 1488 1487 1487 1488 1487 1488 1486 1488 1487 1491 1494 1497 1499 1502 1503 1505 1507 1509 1512 1516 1517 1519 1519 1520 1522 1522 1523 1523 1525 1525 1525 1525 1525 1524 1525 1525 1526 1526 1526 1525 1525 1524
1496 1499 1499 1496 1498 1490 1490 1487 1486 1486 1487 1487 1486 1485 1486 1485 1489 1492 1494 1496 1497 1500 1503 1506 1509 1512 1514 1516 1518 1519 1520 1520 1521 1522 1523 1523 1525 1524 1523 1524 1523 1524 1524 1524 1524 1524 1523 1523 1523
1497 1497 1493 1488 1487 1487 1487 1488 1487 1487 1486 1486 1483 1483 1484 1484 1486 1487 1488 1490 1493 1496 1499 1504 1508 1511 1513 1515 1517 1518 1519 1520 1519 1521 1523 1523 1523 1524 1523 1524 1523 1523 1523 1523 1522 1522 1521 1520 1520
1494 1492 1490 1486 1485 1486 1487 1487 1486 1484 1484 1480 1479 1478 1480 1482 1483 1484 1486 1489 1490 1495 1498 1501 1505 1508 1510 1513 1515 1517 1518 1519 1520 1520 1522 1523 1523 1523 1523 1523 1523 1522 1522 1522 1521 1520 1519 1518 1518
1492 1488 1490 1488 1487 1488 1486 1485 1484 1483 1479 1479 1478 1478 1478 1479 1479 1480 1483 1486 1490 1493 1497 1500 1503 1507 1509 1511 1513 1516 1517 1519 1520 1521 1522 1521 1522 1522 1522 1522 1521 1521 1521 1522 1520 1519 1519 1517 1516
1486 1485 1486 1486 1487 1487 1486 1481 1482 1478 1472 1475 1476 1475 1475 1475 1475 1477 1481 1485 1490 1492 1494 1497 1501 1504 1507 1509 1512 1515 1516 1517 1518 1520 1520 1520 1521 1522 1522 1521 1521 1521 1521 1520 1520 1518 1517 1516 1516
1484 1483 1482 1482 1483 1481 1480 1475 1478 1464 1469 1469 1469 1469 1470 1470 1470 1473 1473 1477 1482 1488 1492 1495 1498 1501 1504 1507 1510 1512 1514 1514 1516 1518 1519 1519 1519 1520 1520 1520 1519 1519 1519 1519 1518 1518 1517 1516 1515
1483 1483 1478 1475 1475 1474 1473 1474 1471 1465 1467 1467 1467 1466 1466 1465 1466 1465 1467 1471 1477 1483 1488 1491 1495 1498 1501 1504 1507 1509 1512 1513 1515 1516 1517 1518 1519 1519 1519 1519 1519 1518 1519 1518 1518 1516 1516 1515 1514
1482 1482 1478 1471 1472 1471 1472 1467 1463 1466 1467 1466 1465 1463 1461 1460 1461 1466 1466 1469 1473 1479 1484 1488 1491 1495 1498 1501 1505 1507 1510 1512 1514 1515 1516 1516 1517 1518 1518 1518 1519 1518 1517 1518 1517 1516 1514 1514 1512
1485 1477 1479 1472 1470 1469 1470 1467 1463 1463 1464 1462 1460 1458 1457 1456 1456 1458 1460 1465 1469 1474 1478 1483 1487 1492 1495 1499 1502 1505 1508 1510 1512 1514 1515 1516 1516 1516 1517 1516 1516 1516 1516 1516 1516 1516 1514 1513 1511
1474 1480 1478 1473 1469 1469 1466 1462 1459 1460 1462 1459 1456 1454 1452 1449 1446 1452 1454 1458 1465 1470 1474 1479 1483 1487 1491 1496 1499 1503 1505 1507 1509 1511 1513 1514 1514 1515 1516 1516 1515 1514 1514 1514 1514 1513 1513 1512 1509
1471 1474 1470 1467 1469 1465 1457 1450 1453 1454 1455 1455 1451 1447 1445 1443 1442 1444 1447 1452 1458 1464 1469 1473 1477 1481 1485 1489 1493 1497 1500 1504 1506 1508 1509 1511 1513 1514 1514 1515 1514 1513 1513 1512 1512 1511 1511 1510 1509
1470 1469 1466 1464 1464 1464 1454 1436 1445 1446 1440 1440 1441 1439 1437 1436 1435 1436 1439 1444 1449 1455 1461 1466 1470 1476 1480 1485 1489 1493 1496 1500 1505 1506 1507 1509 1511 1511 1511 1511 1512 1512 1511 1511 1509 1508 1509 1507 1507
1468 1467 1468 1467 1461 1458 1453 1427 1426 1432 1435 1434 1434 1433 1432 1430 1429 1429 1430 1436 1442 1447 1452 1458 1464 1470 1476 1480 1486 1490 1494 1497 1499 1502 1504 1505 1506 1509 1510 1510 1510 1509 1509 1509 1507 1506 1505 1506 1505
1463 1461 1461 1464 1467 1461 1455 1437 1431 1430 1429 1431 1429 1427 1427 1428 1426 1426 1427 1430 1435 1441 1448 1455 1460 1466 1472 1477 1481 1484 1488 1492 1496 1499 1501 1503 1505 1506 1507 1507 1507 1508 1507 1506 1505 1504 1503 1504 1504
1452 1459 1459 1458 1461 1462 1453 1459 1416 1422 1420 1425 1430 1433 1431 1426 1424 1425 1426 1428 1432 1437 1441 1447 1455 1463 1467 1472 1477 1482 1486 1490 1493 1496 1499 1501 1502 1503 1505 1505 1506 1505 1504 1504 1503 1502 1502 1500 1501
1455 1458 1461 1460 1460 1458 1447 1451 1415 1427 1444 1436 1436 1436 1432 1426 1421 1421 1423 1425 1428 1432 1437 1445 1451 1455 1461 1466 1471 1477 1481 1485 1488 1491 1494 1497 1499 1500 1501 1501 1503 1503 1502 1502 1502 1501 1500 1497 1499
1456 1459 1463 1460 1459 1447 1435 1443 1420 1439 1448 1447 1441 1437 1435 1430 1424 1421 1421 1423 1425 1428 1434 1441 1446 1451 1456 1463 1468 1474 1477 1481 1486 1488 1491 1494 1496 1496 1499 1499 1499 1499 1499 1499 1501 1501 1500 1498 1496
1448 1450 1454 1452 1440 1435 1438 1431 1418 1445 1448 1447 1444 1439 1434 1431 1430 1427 1424 1423 1424 1428 1432 1437 1443 1448 1453 1459 1465 1471 1475 1478 1482 1486 1489 1491 1494 1494 1495 1497 1497 1496 1497 1497 1499 1499 1498 1496 1493
1449 1450 1446 1453 1443 1446 1431 1434 1445 1443 1444 1443 1441 1436 1431 1432 1430 1430 1429 1426 1426 1429 1432 1437 1443 1449 1454 1458 1463 1469 1474 1477 1480 1483 1487 1490 1491 1490 1494 1495 1496 1494 1493 1495 1495 1496 1496 1494 1493
1442 1443 1452 1460 1451 1436 1420 1425 1422 1446 1443 1441 1441 1439 1435 1433 1430 1428 1430 1430 1431 1432 1436 1440 1445 1450 1453 1459 1464 1469 1472 1475 1479 1482 1485 1490 1490 1491 1494 1496 1495 1493 1493 1493 1492 1492 1493 1494 1493
1449 1445 1452 1452 1452 1437 1430 1432 1448 1446 1444 1443 1440 1437 1433 1433 1431 1429 1429 1432 1433 1435 1438 1440 1445 1451 1455 1459 1463 1468 1471 1475 1477 1480 1484 1487 1489 1490 1493 1495 1494 1494 1492 1493 1491 1490 1490 1490 1489
1452 1456 1452 1452 1447 1441 1441 1436 1440 1439 1436 1436 1434 1430 1432 1435 1437 1432 1430 1430 1433 1436 1441 1445 1447 1452 1456 1460 1463 1468 1472 1474 1476 1478 1482 1486 1487 1489 1492 1494 1493 1493 1492 1493 1491 1489 1487 1486 1489